TimeMST,TemperatureF,Dew PointF,Humidity,Sea Level PressureIn,VisibilityMPH,Wind Direction,Wind SpeedMPH,Gust SpeedMPH,PrecipitationIn,Events,Conditions,WindDirDegrees,DateUTC
12:53 AM,19.0,12.0,74,30.38,10.0,NNW,10.4,-,N/A,,Clear,340,2013-01-03 07:53:00
1:53 AM,18.0,10.0,71,30.39,10.0,NNW,10.4,-,N/A,,Clear,340,2013-01-03 08:53:00
2:53 AM,17.1,10.0,74,30.42,10.0,North,5.8,-,N/A,,Partly Cloudy,360,2013-01-03 09:53:00
3:53 AM,16.0,10.9,81,30.43,10.0,SW,3.5,-,N/A,,Overcast,220,2013-01-03 10:53:00
4:53 AM,16.0,10.9,81,30.44,10.0,WNW,3.5,-,N/A,,Clear,290,2013-01-03 11:53:00
5:53 AM,12.0,7.0,80,30.47,10.0,WSW,4.6,-,N/A,,Mostly Cloudy,250,2013-01-03 12:53:00
6:53 AM,12.9,8.1,81,30.49,10.0,Calm,Calm,-,N/A,,Partly Cloudy,0,2013-01-03 13:53:00
7:53 AM,17.1,10.9,77,30.49,10.0,West,5.8,-,N/A,,Clear,270,2013-01-03 14:53:00
8:53 AM,21.0,14.0,74,30.49,10.0,WSW,3.5,-,N/A,,Clear,240,2013-01-03 15:53:00
9:53 AM,27.0,16.0,63,30.50,10.0,WNW,4.6,-,N/A,,Clear,300,2013-01-03 16:53:00
10:53 AM,30.9,16.0,54,30.48,10.0,North,5.8,-,N/A,,Clear,350,2013-01-03 17:53:00
11:53 AM,33.1,19.0,56,30.44,10.0,North,8.1,-,N/A,,Clear,350,2013-01-03 18:53:00
12:53 PM,34.0,19.0,54,30.41,10.0,Calm,Calm,-,N/A,,Clear,0,2013-01-03 19:53:00
1:53 PM,35.1,19.0,52,30.39,10.0,NW,3.5,-,N/A,,Clear,310,2013-01-03 20:53:00
2:53 PM,36.0,19.0,50,30.38,10.0,Calm,Calm,-,N/A,,Clear,0,2013-01-03 21:53:00
3:53 PM,37.0,19.9,50,30.38,10.0,NNE,3.5,-,N/A,,Clear,20,2013-01-03 22:53:00
4:53 PM,32.0,21.0,64,30.39,10.0,North,4.6,-,N/A,,Clear,360,2013-01-03 23:53:00
5:53 PM,28.9,21.9,75,30.40,10.0,NE,3.5,-,N/A,,Clear,50,2013-01-04 00:53:00
6:53 PM,27.0,21.0,78,30.43,10.0,South,3.5,-,N/A,,Clear,190,2013-01-04 01:53:00
7:53 PM,27.0,21.0,78,30.42,10.0,West,4.6,-,N/A,,Clear,280,2013-01-04 02:53:00
8:53 PM,25.0,19.0,78,30.43,10.0,SW,6.9,-,N/A,,Clear,220,2013-01-04 03:53:00
9:53 PM,25.0,19.0,78,30.42,10.0,WSW,6.9,-,N/A,,Clear,250,2013-01-04 04:53:00
10:53 PM,23.0,19.0,85,30.40,10.0,West,5.8,-,N/A,,Clear,260,2013-01-04 05:53:00
11:53 PM,21.0,17.1,85,30.39,10.0,SW,5.8,-,N/A,,Clear,230,2013-01-04 06:53:00